PBO Station Position Time Series. Reference Frame : NAM14
Format Version,1.1.0
4-character ID,TNGF
Station name,tngf_tnet_mx2015
Begin Date, 2016-04-14
End Date, 2019-10-07
Release Date, 2019-10-08
Reference position, 19.3269423563 North Latitude, -99.1760507038 East Longitude, 2273.74178 meters elevation,
Date, North (mm), East (mm), Vertical (mm), North Std. Deviation (mm), East Std. Deviation (mm),              Vertical Std. Deviation (mm), Quality,
2016-04-14,0.00, 0.00, 0.00, 1.61, 1.79, 7.63, repro,
2016-04-15,-0.55, 1.43, -8.24, 1.59, 1.78, 7.59, repro,
2016-04-16,0.47, -0.80, -1.09, 1.61, 1.79, 7.63, repro,
2016-04-17,-1.05, 0.22, -15.45, 1.58, 1.79, 7.51, repro,
2016-04-18,-0.22, 1.84, -10.91, 1.59, 1.78, 7.58, repro,
2016-04-19,-1.41, 1.61, -17.02, 1.64, 1.81, 7.71, repro,
2016-04-20,-3.28, 1.77, -8.01, 1.67, 1.82, 7.80, repro,
2016-04-21,1.17, 0.76, -9.95, 1.63, 1.79, 7.72, repro,
2016-04-22,-1.38, -2.61, -14.42, 1.64, 1.88, 7.71, repro,
2016-04-23,-1.21, -1.07, -7.78, 1.61, 1.78, 7.67, repro,
2016-04-24,0.21, 0.63, -11.58, 1.60, 1.79, 7.60, repro,
2016-04-25,-2.72, -1.08, -13.80, 1.62, 1.79, 7.62, repro,
2016-04-26,2.27, 3.54, 10.92, 1.65, 1.81, 7.82, repro,
2016-04-27,-1.70, -3.11, -18.08, 1.59, 1.78, 7.58, repro,
2016-04-28,-2.22, -0.34, -8.25, 1.61, 1.79, 7.63, repro,
2016-04-29,1.26, -1.14, -3.10, 1.60, 1.76, 7.51, repro,
2016-04-30,-2.12, -0.62, -8.69, 1.58, 1.78, 7.53, repro,
2016-05-01,-0.81, 1.61, -16.15, 1.59, 1.76, 7.51, repro,
2016-05-02,0.47, 1.35, -11.09, 1.62, 1.81, 7.58, repro,
2016-05-03,-0.08, -2.65, -13.86, 1.64, 1.81, 7.62, repro,
2016-05-04,0.37, -0.08, -10.67, 1.63, 1.80, 7.53, repro,
2016-05-05,0.65, 0.53, -12.58, 1.69, 1.84, 7.83, repro,
2016-05-06,0.80, 0.76, -19.24, 1.65, 1.84, 7.80, repro,
2016-05-07,-0.33, 2.07, -9.09, 1.63, 1.86, 7.73, repro,
2016-05-08,0.86, -0.80, -11.97, 1.72, 1.91, 8.03, repro,
2016-05-09,2.23, 2.19, -6.34, 1.65, 1.81, 7.85, repro,
2016-05-10,0.38, 0.35, -14.07, 1.64, 1.81, 7.64, repro,
2016-05-11,1.33, 0.84, -16.44, 1.62, 1.79, 7.72, repro,
2016-05-12,-1.71, -0.61, -17.18, 1.60, 1.77, 7.55, repro,
2016-05-13,-0.88, -0.87, -21.07, 1.83, 2.01, 8.46, repro,
2016-05-16,1.67, -5.81, -15.41, 2.74, 3.23, 13.22, repro,
2016-05-17,-2.58, -2.15, -14.15, 1.60, 1.75, 7.50, repro,
2016-05-18,-0.57, -1.35, -20.50, 1.62, 1.82, 7.68, repro,
2016-05-19,-0.90, 0.36, -13.62, 1.65, 1.81, 7.69, repro,
2016-05-20,-0.77, 2.17, -10.79, 1.62, 1.77, 7.62, repro,
2016-05-21,-0.03, -2.35, -13.59, 1.64, 1.83, 7.78, repro,
2016-05-22,0.87, -1.61, -17.12, 1.60, 1.75, 7.50, repro,
2016-05-23,0.36, 1.05, -0.84, 1.62, 1.76, 7.59, repro,
2016-05-24,-0.11, -2.51, -22.96, 1.59, 1.76, 7.50, repro,
2016-05-25,-2.06, -2.41, -11.62, 1.60, 1.77, 7.57, repro,
2016-05-26,0.00, 2.24, -17.77, 1.62, 1.79, 7.68, repro,
2016-05-27,1.08, -1.06, -15.40, 1.65, 1.83, 7.87, repro,
2016-05-28,-0.43, -1.35, -7.69, 1.59, 1.76, 7.52, repro,
2016-05-29,-1.33, -0.62, -21.00, 1.59, 1.75, 7.54, repro,
2016-05-30,-1.14, -0.92, -18.01, 1.60, 1.78, 7.61, repro,
2016-05-31,-0.99, -1.93, -13.72, 1.62, 1.78, 7.69, repro,
2016-06-01,-2.16, -2.31, -20.80, 1.62, 1.77, 7.68, repro,
2016-06-02,0.83, -1.40, -27.60, 1.62, 1.81, 7.73, repro,
2016-06-03,-2.51, 2.40, -12.46, 1.69, 1.89, 8.16, repro,
2016-06-04,0.09, -2.86, -23.70, 1.58, 1.76, 7.47, repro,
2016-06-05,0.01, -1.76, -21.90, 1.61, 1.80, 7.71, repro,
2016-06-06,-1.52, -1.69, -22.09, 1.59, 1.77, 7.57, repro,
2016-06-07,-0.92, -1.92, -17.68, 1.62, 1.78, 7.69, repro,
2016-06-08,-2.63, -4.22, -26.45, 1.59, 1.78, 7.55, repro,
2016-06-09,0.19, -3.73, -15.07, 1.60, 1.82, 7.74, repro,
2016-06-10,-1.40, -1.33, -29.07, 1.58, 1.76, 7.44, repro,
2016-06-11,-0.65, -2.05, -23.21, 1.60, 1.78, 7.59, repro,
2016-06-12,-3.43, 0.33, -33.78, 1.59, 1.77, 7.51, repro,
2016-06-13,-0.76, -1.16, -20.30, 1.60, 1.76, 7.50, repro,
2016-06-14,-0.33, -1.02, -28.00, 1.60, 1.76, 7.56, repro,
2016-06-15,0.97, -0.95, -20.94, 1.59, 1.78, 7.55, repro,
2016-06-16,-0.78, -0.40, -21.19, 1.64, 1.81, 7.82, repro,
2016-06-17,1.14, -0.50, -11.86, 1.61, 1.77, 7.61, repro,
2016-06-18,-3.33, 1.22, -20.22, 1.60, 1.77, 7.58, repro,
2016-06-19,-0.04, -3.29, -27.09, 1.59, 1.77, 7.52, repro,
2016-06-20,3.46, 1.52, -15.93, 2.36, 2.58, 11.20, repro,
2016-06-21,0.53, -2.38, -25.60, 1.59, 1.78, 7.53, repro,
2016-06-22,-1.41, -2.61, -22.27, 1.64, 1.81, 7.66, repro,
2016-06-23,0.42, -0.94, -13.17, 1.61, 1.76, 7.57, repro,
2016-06-24,-1.59, -1.20, -32.83, 1.65, 1.78, 7.68, repro,
2016-06-25,-2.61, 1.34, -28.86, 1.59, 1.76, 7.49, repro,
2016-06-26,-1.04, -0.33, -20.35, 1.62, 1.78, 7.67, repro,
2016-06-27,-0.63, -1.09, -20.19, 1.63, 1.79, 7.68, repro,
2016-06-28,-1.56, -1.83, -26.94, 1.61, 1.77, 7.56, repro,
2016-06-29,-1.49, -2.80, -28.63, 1.60, 1.75, 7.47, repro,
2016-06-30,-1.55, -1.08, -23.92, 1.58, 1.76, 7.52, repro,
2016-07-01,-0.32, -1.80, -27.76, 1.59, 1.76, 7.49, repro,
2016-07-02,-0.29, -2.77, -28.87, 1.61, 1.76, 7.59, repro,
2016-07-03,0.65, -2.86, -17.27, 1.63, 1.79, 7.61, repro,
2016-07-04,1.75, -1.38, -24.96, 1.65, 1.83, 7.76, repro,
2016-07-05,-0.80, -0.37, -20.95, 1.62, 1.78, 7.67, repro,
2016-07-06,0.33, -0.70, -33.63, 1.65, 1.79, 7.79, repro,
2016-07-07,-1.09, -1.30, -30.93, 1.59, 1.74, 7.47, repro,
2016-07-08,-2.18, -2.62, -28.17, 1.69, 1.83, 7.98, repro,
2016-07-09,-0.70, -1.07, -29.33, 1.61, 1.78, 7.57, repro,
2016-07-10,-0.55, 0.05, -23.55, 1.60, 1.78, 7.62, repro,
2016-07-11,-1.67, -1.70, -33.36, 1.65, 1.77, 7.72, repro,
2016-07-12,-1.29, -1.86, -32.58, 1.61, 1.76, 7.59, repro,
2016-07-13,-3.26, -2.02, -25.35, 1.61, 1.74, 7.49, repro,
2016-07-14,-2.15, -2.06, -27.67, 1.58, 1.73, 7.44, repro,
2016-07-15,-2.04, -0.85, -20.64, 1.61, 1.76, 7.57, repro,
2016-07-16,-1.32, -1.93, -39.39, 1.87, 2.04, 8.63, repro,
2016-07-17,-0.61, 0.37, -32.41, 1.68, 1.78, 7.93, repro,
2016-07-18,-1.83, 1.19, -26.66, 1.63, 1.81, 7.77, repro,
2016-07-19,-0.96, -0.28, -33.85, 1.60, 1.75, 7.52, repro,
2016-07-20,-3.02, -0.84, -21.46, 1.63, 1.76, 7.59, repro,
2016-07-21,-2.33, -0.51, -25.06, 1.61, 1.77, 7.67, repro,
2016-07-22,-4.85, 0.84, -21.93, 1.71, 1.88, 8.01, repro,
2016-07-23,-2.45, -1.42, -30.69, 1.58, 1.74, 7.47, repro,
2016-07-24,-1.70, -2.11, -16.39, 1.61, 1.76, 7.62, repro,
2016-07-25,-3.79, -0.65, -13.13, 1.62, 1.83, 7.81, repro,
2016-07-26,-4.25, -1.12, -21.39, 1.62, 1.81, 7.78, repro,
2016-07-27,-4.89, -0.06, -18.04, 1.67, 1.85, 8.14, repro,
2016-07-28,-1.90, -3.57, -21.18, 1.64, 1.77, 7.84, repro,
2016-07-29,-3.16, -0.99, -22.37, 1.63, 1.77, 7.76, repro,
2016-07-30,-3.13, -0.23, -16.63, 1.60, 1.76, 7.67, repro,
2016-07-31,-3.24, -1.55, -23.52, 1.61, 1.74, 7.58, repro,
2016-08-01,-1.91, 1.70, -23.06, 1.61, 1.78, 7.73, repro,
2016-08-02,-1.87, -0.75, -28.25, 1.63, 1.77, 7.78, repro,
2016-08-03,-1.87, -1.81, -19.71, 1.66, 1.82, 7.92, repro,
2016-08-04,-1.86, -2.42, -22.03, 1.60, 1.75, 7.60, repro,
2016-08-05,-2.23, -1.36, -24.55, 1.58, 1.73, 7.44, repro,
2016-08-06,-1.50, -0.15, -29.22, 1.62, 1.76, 7.73, repro,
2016-08-07,-4.11, -1.70, -32.03, 1.61, 1.75, 7.69, repro,
2016-08-08,-1.62, -3.23, -24.92, 1.62, 1.78, 7.78, repro,
2016-08-09,-3.12, -2.12, -32.54, 1.62, 1.77, 7.92, repro,
2016-08-10,-3.99, -3.06, -30.63, 1.76, 1.89, 8.22, repro,
2016-08-11,-2.29, -2.03, -40.90, 1.69, 1.78, 8.07, repro,
2016-08-12,-4.02, -3.13, -37.26, 1.63, 1.78, 7.70, repro,
2016-08-13,-2.17, -1.02, -26.15, 1.60, 1.74, 7.61, repro,
2016-08-14,-1.39, -3.00, -27.51, 1.62, 1.73, 7.57, repro,
2016-08-15,-0.23, -0.31, -24.74, 1.59, 1.74, 7.55, repro,
2016-08-16,0.54, -3.21, -30.97, 1.67, 1.85, 8.01, repro,
2016-08-17,-0.85, 0.53, -26.79, 1.65, 1.80, 7.87, repro,
2016-08-18,-2.86, -1.58, -29.99, 1.60, 1.74, 7.55, repro,
2016-08-19,-2.22, -2.57, -33.71, 1.73, 1.87, 8.65, repro,
2016-08-20,-2.52, -2.43, -26.17, 1.62, 1.81, 7.72, repro,
2016-08-21,0.09, -1.51, -26.43, 1.62, 1.80, 7.71, repro,
2016-08-22,-1.30, -6.16, -29.51, 1.82, 2.04, 8.58, repro,
2016-08-23,-1.86, -1.73, -35.20, 1.59, 1.74, 7.55, repro,
2016-08-24,-1.91, -1.91, -32.53, 1.62, 1.75, 7.62, repro,
2016-08-25,-1.06, -1.22, -32.87, 1.74, 1.90, 8.42, repro,
2016-08-26,-2.18, -4.45, -35.96, 1.60, 1.75, 7.61, repro,
2016-08-27,0.09, -3.65, -28.70, 1.58, 1.74, 7.46, repro,
2016-08-28,-0.02, -4.21, -26.37, 1.61, 1.75, 7.56, repro,
2016-08-29,-1.11, -2.21, -24.28, 1.67, 1.84, 7.96, repro,
2016-08-30,-1.31, -3.45, -34.45, 1.72, 1.93, 8.28, repro,
2016-08-31,0.10, -3.66, -21.74, 1.61, 1.73, 7.54, repro,
2016-09-01,-0.07, -3.17, -29.43, 1.63, 1.77, 7.72, repro,
2016-09-02,-1.98, -3.81, -32.51, 1.61, 1.77, 7.67, repro,
2016-09-03,-1.76, -3.20, -28.72, 1.62, 1.73, 7.63, repro,
2016-09-04,-0.64, -4.21, -27.57, 1.66, 1.82, 7.93, repro,
2016-09-05,-2.54, -2.22, -28.88, 1.60, 1.73, 7.53, repro,
2016-09-06,-1.52, -3.98, -29.32, 1.61, 1.73, 7.54, repro,
2016-09-07,-0.15, -0.22, -33.43, 1.70, 1.87, 8.07, repro,
2016-09-08,-1.32, -1.30, -33.05, 1.68, 1.83, 8.08, repro,
2016-09-09,-0.71, -2.17, -34.67, 1.66, 1.76, 7.82, repro,
2016-09-10,-0.89, -3.74, -28.00, 1.61, 1.73, 7.56, repro,
2016-09-11,-1.95, -2.94, -32.41, 1.67, 1.84, 7.78, repro,
2016-09-12,-1.62, -3.14, -32.12, 1.65, 1.78, 7.77, repro,
2016-09-13,-2.36, -1.48, -36.49, 1.62, 1.74, 7.67, repro,
2016-09-14,-0.63, -2.21, -35.81, 1.64, 1.78, 7.63, repro,
2016-09-15,-1.01, -1.58, -36.63, 1.67, 1.88, 7.86, repro,
2016-09-16,0.42, -1.51, -28.03, 1.67, 1.85, 7.80, repro,
2016-09-17,0.72, -2.41, -34.49, 1.63, 1.74, 7.65, repro,
2016-09-18,-0.31, -1.04, -11.77, 1.74, 2.00, 8.54, repro,
2016-09-19,-0.41, -4.33, -29.99, 1.63, 1.76, 7.62, repro,
2016-09-20,-1.60, -2.92, -35.14, 1.60, 1.73, 7.58, repro,
2016-09-21,0.26, -3.07, -28.14, 1.62, 1.75, 7.65, repro,
2016-09-22,-1.31, -3.54, -40.72, 1.74, 1.84, 8.33, repro,
2016-09-23,-0.14, -0.19, -34.68, 1.67, 1.78, 8.00, repro,
2016-09-24,-1.02, -2.37, -33.91, 1.65, 1.90, 8.04, repro,
2016-09-25,-2.12, -2.19, -26.56, 1.76, 1.93, 8.61, repro,
2016-09-26,-0.85, -0.37, -32.54, 1.75, 1.93, 8.32, repro,
2016-09-27,0.03, -3.37, -31.75, 1.61, 1.77, 7.66, repro,
2016-09-28,-2.83, -0.79, -41.47, 1.76, 2.03, 8.91, repro,
2016-09-29,-2.31, -0.27, -40.81, 1.61, 1.73, 7.59, repro,
2016-09-30,-1.61, -3.95, -35.63, 1.61, 1.73, 7.50, repro,
2016-10-01,-0.84, -1.99, -32.46, 1.66, 1.75, 7.70, repro,
2016-10-02,-0.62, -1.32, -27.32, 1.62, 1.73, 7.59, repro,
2016-10-03,-0.56, -2.88, -33.63, 1.61, 1.72, 7.54, repro,
2016-10-04,-2.08, -1.64, -31.14, 1.66, 1.88, 7.88, repro,
2016-10-05,1.10, -4.48, -31.88, 1.63, 1.72, 7.55, repro,
2016-10-06,-1.15, -3.61, -35.12, 1.63, 1.73, 7.60, repro,
2016-10-07,-0.99, -3.60, -30.03, 1.61, 1.72, 7.53, repro,
2016-10-08,-2.09, -1.87, -34.14, 1.61, 1.71, 7.53, repro,
2016-10-09,-0.85, -2.39, -31.31, 1.62, 1.74, 7.62, repro,
2016-10-10,-1.36, -2.71, -26.90, 1.60, 1.72, 7.51, repro,
2016-10-11,-1.03, -3.32, -31.32, 1.62, 1.73, 7.58, repro,
2016-10-12,-0.69, -0.83, -37.59, 1.80, 1.95, 8.42, repro,
2016-10-13,1.33, -1.41, -29.85, 1.61, 1.73, 7.60, repro,
2016-10-14,-0.04, -3.71, -37.40, 1.67, 1.77, 7.90, repro,
2016-10-15,-0.92, -3.12, -38.11, 1.60, 1.73, 7.44, repro,
2016-10-16,-0.08, -2.51, -26.45, 1.62, 1.74, 7.56, repro,
2016-10-17,0.33, -1.70, -21.71, 1.64, 1.75, 7.65, repro,
2016-10-18,-0.81, -3.62, -26.88, 1.64, 1.79, 7.82, repro,
2016-10-19,-0.91, -4.41, -34.60, 1.60, 1.72, 7.49, repro,
2016-10-20,-1.69, -1.82, -36.35, 1.59, 1.72, 7.45, repro,
2016-10-21,-3.75, -1.77, -38.30, 1.58, 1.72, 7.44, repro,
2016-10-22,-1.31, -2.35, -29.88, 1.61, 1.74, 7.59, repro,
2016-10-23,-2.48, -3.32, -34.49, 1.61, 1.74, 7.54, repro,
2016-10-24,-2.56, -3.86, -38.03, 1.63, 1.72, 7.58, repro,
2016-10-25,-2.93, -3.14, -42.72, 1.59, 1.72, 7.47, repro,
2016-10-26,-2.90, -3.88, -32.39, 1.61, 1.71, 7.50, repro,
2016-10-27,-1.28, -0.89, -38.63, 1.59, 1.71, 7.45, repro,
2016-10-28,-1.67, -2.38, -34.54, 1.62, 1.73, 7.57, repro,
2016-10-29,-3.37, -2.06, -40.52, 1.62, 1.71, 7.48, repro,
2016-10-30,-4.03, -2.48, -41.16, 1.61, 1.71, 7.47, repro,
2016-10-31,-1.77, -4.00, -28.41, 1.63, 1.75, 7.68, repro,
2016-11-01,-0.11, -2.80, -46.03, 1.59, 1.71, 7.53, repro,
2016-11-02,-0.03, -4.07, -33.34, 1.69, 1.79, 7.80, repro,
2016-11-03,-2.52, -2.14, -32.92, 1.60, 1.73, 7.51, repro,
2016-11-04,-3.45, -2.67, -41.61, 1.63, 1.73, 7.65, repro,
2016-11-05,-3.17, -1.98, -38.60, 1.60, 1.72, 7.55, repro,
2016-11-06,-2.39, -2.06, -40.15, 1.61, 1.71, 7.54, repro,
2016-11-07,-0.65, -4.04, -38.26, 1.59, 1.71, 7.47, repro,
2016-11-08,-1.62, -2.32, -33.06, 1.60, 1.73, 7.51, repro,
2016-11-09,-1.79, -3.72, -37.94, 1.60, 1.73, 7.53, repro,
2016-11-10,-1.50, -2.14, -44.51, 1.65, 1.73, 7.82, repro,
2016-11-11,-3.74, -3.21, -38.11, 1.62, 1.71, 7.56, repro,
2016-11-12,-0.25, -1.29, -36.50, 1.60, 1.71, 7.49, repro,
2016-11-13,-1.09, -2.97, -40.70, 1.60, 1.71, 7.44, repro,
2016-11-14,-1.26, -2.96, -37.64, 1.60, 1.73, 7.58, repro,
2016-11-15,-1.88, -3.39, -36.35, 1.61, 1.72, 7.58, repro,
2016-11-16,-1.79, -2.79, -30.55, 1.62, 1.73, 7.56, repro,
2016-11-17,-2.39, -1.99, -40.96, 1.61, 1.73, 7.60, repro,
2016-11-18,-1.63, -3.60, -38.55, 1.59, 1.73, 7.47, repro,
2016-11-19,-0.35, -1.01, -45.43, 1.60, 1.72, 7.47, repro,
2016-11-20,-1.61, -2.39, -42.75, 1.61, 1.74, 7.56, repro,
2016-11-21,-2.32, -0.86, -34.91, 1.60, 1.73, 7.46, repro,
2016-11-22,-2.26, -2.30, -33.36, 1.61, 1.73, 7.53, repro,
2016-11-23,-2.02, -2.61, -34.39, 1.60, 1.71, 7.45, repro,
2016-11-24,-1.40, -1.65, -31.27, 1.60, 1.72, 7.52, repro,
2016-11-25,-1.91, -2.28, -36.32, 1.60, 1.73, 7.57, repro,
2016-11-26,-1.90, -2.67, -41.59, 1.65, 1.76, 7.64, repro,
2016-11-27,-1.01, -2.79, -39.75, 1.60, 1.77, 7.57, repro,
2016-11-28,-0.74, -2.51, -32.45, 1.60, 1.74, 7.49, repro,
2016-11-29,-0.77, -1.36, -29.03, 1.59, 1.70, 7.45, repro,
2016-11-30,-1.05, -0.02, -32.83, 1.60, 1.72, 7.55, repro,
2016-12-01,1.16, -0.01, -29.22, 1.64, 1.75, 7.70, repro,
2016-12-02,-1.61, -1.79, -40.49, 1.62, 1.75, 7.60, repro,
2016-12-03,-0.83, -0.35, -27.27, 1.61, 1.74, 7.58, repro,
2016-12-04,0.71, 0.38, -23.80, 1.58, 1.72, 7.50, repro,
2016-12-05,0.08, -0.68, -0.41, 1.63, 1.74, 7.67, repro,
2016-12-06,-0.83, 1.44, -28.90, 1.64, 1.77, 7.96, repro,
2016-12-07,-2.66, -1.09, -37.01, 1.60, 1.74, 7.59, repro,
2016-12-08,-1.04, -0.13, -34.39, 1.60, 1.72, 7.50, repro,
2016-12-09,-1.23, -0.15, -32.46, 1.65, 1.80, 7.75, repro,
2016-12-10,-1.86, -1.62, -32.35, 1.61, 1.72, 7.49, repro,
2016-12-11,-0.01, -2.55, -31.38, 1.62, 1.72, 7.55, repro,
2016-12-12,-1.10, -2.52, -39.96, 1.60, 1.72, 7.51, repro,
2016-12-13,-0.66, -0.47, -35.69, 1.59, 1.72, 7.50, repro,
2016-12-14,-1.02, -1.44, -32.10, 1.59, 1.71, 7.42, repro,
2016-12-15,-1.42, -2.00, -31.42, 1.60, 1.71, 7.44, repro,
2016-12-16,-0.11, -2.31, -32.97, 1.60, 1.72, 7.44, repro,
2016-12-17,-0.61, -1.88, -32.29, 1.61, 1.71, 7.51, repro,
2016-12-18,0.12, -1.39, -32.44, 1.62, 1.74, 7.66, repro,
2016-12-19,0.26, -0.14, -39.89, 1.62, 1.81, 7.71, repro,
2016-12-20,1.20, -2.24, -31.31, 1.60, 1.74, 7.51, repro,
2016-12-21,2.28, -1.78, -24.22, 1.63, 1.73, 7.56, repro,
2016-12-22,-0.40, -2.47, -34.65, 1.61, 1.73, 7.54, repro,
2016-12-23,0.85, -1.97, -33.94, 1.61, 1.72, 7.54, repro,
2016-12-24,-0.65, -2.29, -35.35, 1.59, 1.74, 7.53, repro,
2016-12-25,0.01, -0.24, -33.57, 1.59, 1.72, 7.45, repro,
2016-12-26,-0.23, -1.82, -33.63, 1.59, 1.72, 7.47, repro,
2016-12-27,0.75, -2.27, -31.97, 1.60, 1.72, 7.51, repro,
2016-12-28,0.44, -2.17, -27.47, 1.61, 1.74, 7.58, repro,
2016-12-29,-0.22, -0.86, -33.85, 1.62, 1.73, 7.64, repro,
2016-12-30,1.18, -0.38, -36.53, 1.59, 1.72, 7.49, repro,
2016-12-31,-0.84, -0.75, -23.43, 1.60, 1.74, 7.57, repro,
2017-01-01,1.33, 0.28, -15.27, 1.60, 1.74, 7.63, repro,
2017-01-02,-1.14, -0.73, -29.77, 1.59, 1.72, 7.49, repro,
2017-01-03,-1.45, -1.81, -28.58, 1.60, 1.72, 7.50, repro,
2017-01-04,0.15, -1.97, -32.76, 1.60, 1.72, 7.53, repro,
2017-01-05,0.05, -1.89, -32.53, 1.59, 1.72, 7.48, repro,
2017-01-06,0.37, -2.17, -23.64, 1.63, 1.76, 7.90, repro,
2017-01-07,-0.53, -0.26, -33.56, 1.62, 1.75, 7.62, repro,
2017-01-08,-1.20, -2.17, -38.76, 1.60, 1.75, 7.59, repro,
2017-01-09,-0.70, -1.56, -35.53, 1.60, 1.74, 7.55, repro,
2017-01-10,-1.21, -3.10, -36.19, 1.66, 1.81, 7.86, repro,
2017-01-11,0.33, -2.50, -38.60, 1.59, 1.74, 7.49, repro,
2017-01-12,0.99, -0.91, -24.27, 1.59, 1.74, 7.52, repro,
2017-01-13,-1.81, -1.60, -32.01, 1.57, 1.74, 7.50, repro,
2017-01-14,0.19, -3.11, -40.00, 1.61, 1.73, 7.51, repro,
2017-01-15,-0.93, -3.37, -38.12, 1.60, 1.74, 7.51, repro,
2017-01-16,-1.22, -1.65, -34.42, 1.59, 1.73, 7.55, repro,
2017-01-17,0.12, -4.01, -29.85, 1.64, 1.76, 7.79, repro,
2017-01-18,0.16, -3.01, -29.36, 1.63, 1.75, 7.80, repro,
2017-01-19,0.84, -4.13, -27.70, 1.65, 1.74, 7.82, repro,
2017-01-20,2.48, 2.92, -15.17, 1.62, 1.74, 7.61, repro,
2017-01-21,-0.81, -1.87, -30.79, 1.60, 1.74, 7.53, repro,
2017-01-22,-0.61, -1.43, -28.92, 1.59, 1.73, 7.50, repro,
2017-01-23,-0.90, -2.77, -31.56, 1.59, 1.71, 7.44, repro,
2017-01-24,0.57, -2.44, -27.15, 1.64, 1.74, 7.77, repro,
2017-01-25,-1.45, -0.84, -21.33, 1.60, 1.73, 7.59, repro,
2017-01-26,-0.48, -1.63, -28.65, 1.60, 1.71, 7.44, repro,
2017-01-27,0.05, -1.12, -30.77, 1.62, 1.73, 7.55, repro,
2017-01-28,0.15, -2.28, -32.16, 1.62, 1.75, 7.59, repro,
2017-01-29,-0.72, -1.96, -26.83, 1.60, 1.72, 7.45, repro,
2017-01-30,0.11, -1.87, -25.05, 1.62, 1.73, 7.53, repro,
2017-01-31,-0.32, -0.23, -35.19, 1.65, 1.75, 7.79, repro,
2017-02-01,-1.45, -1.40, -22.45, 1.60, 1.73, 7.55, repro,
2017-02-02,0.63, -2.48, -31.70, 1.59, 1.71, 7.38, repro,
2017-02-03,-0.36, -1.81, -22.40, 1.61, 1.74, 7.52, repro,
2017-02-04,-0.45, 0.43, -26.98, 1.59, 1.72, 7.42, repro,
2017-02-05,-0.52, -3.70, -29.70, 1.66, 1.81, 7.72, repro,
2017-02-06,0.49, -1.48, -28.42, 1.59, 1.72, 7.45, repro,
2017-02-07,-0.45, -2.22, -23.61, 1.62, 1.73, 7.53, repro,
2017-02-08,-0.17, -3.36, -26.48, 1.59, 1.72, 7.42, repro,
2017-02-09,-0.96, -1.92, -25.89, 1.60, 1.72, 7.45, repro,
2017-02-10,2.68, -0.37, -29.63, 1.76, 1.91, 8.28, repro,
2017-02-11,0.80, -2.24, -34.47, 1.59, 1.73, 7.47, repro,
2017-02-12,0.43, -2.16, -28.46, 1.59, 1.74, 7.56, repro,
2017-02-13,0.01, -3.40, -28.73, 1.60, 1.73, 7.50, repro,
2017-02-14,-0.36, -1.74, -31.47, 1.65, 1.75, 7.84, repro,
2017-02-15,-0.89, -2.91, -24.52, 1.61, 1.73, 7.57, repro,
2017-02-16,2.00, 1.50, -14.64, 1.62, 1.74, 7.62, repro,
2017-02-17,5.70, 1.27, -13.80, 1.60, 1.75, 7.62, repro,
2017-02-18,0.75, -1.81, -17.02, 1.62, 1.79, 7.71, repro,
2017-02-19,0.63, -3.82, -23.45, 1.60, 1.75, 7.53, repro,
2017-02-20,6.20, 3.34, -16.42, 1.59, 1.72, 7.46, repro,
2017-02-21,0.93, -2.83, -25.19, 1.60, 1.73, 7.46, repro,
2017-02-22,0.14, -1.42, -22.56, 1.57, 1.72, 7.44, repro,
2017-02-23,1.46, -3.97, -19.26, 1.59, 1.73, 7.53, repro,
2017-02-24,0.70, -2.64, -20.04, 1.61, 1.75, 7.56, repro,
2017-02-25,0.54, -2.29, -18.32, 1.65, 1.79, 7.95, repro,
2017-02-26,0.87, -1.11, -16.34, 1.60, 1.74, 7.55, repro,
2017-02-27,1.59, -1.20, -16.17, 1.61, 1.79, 7.74, repro,
2017-02-28,1.18, -3.08, -25.56, 1.58, 1.73, 7.49, repro,
2017-03-01,0.98, -2.92, -20.98, 1.60, 1.74, 7.55, repro,
2017-03-02,1.27, -2.53, -22.71, 1.60, 1.73, 7.52, repro,
2017-03-03,2.61, -2.63, -31.54, 1.59, 1.73, 7.45, repro,
2017-03-04,1.36, -3.87, -24.27, 1.60, 1.73, 7.55, repro,
2017-03-05,2.06, -4.96, -36.60, 1.65, 1.74, 7.64, repro,
2017-03-06,2.87, -2.87, -24.38, 1.64, 1.81, 7.62, repro,
2017-03-07,1.19, -3.61, -30.75, 1.59, 1.76, 7.60, repro,
2017-03-08,1.29, -0.15, -22.06, 1.58, 1.74, 7.49, repro,
2017-03-09,1.52, -1.20, -26.58, 1.64, 1.76, 7.69, repro,
2017-03-10,-0.17, -0.25, -27.26, 1.61, 1.75, 7.55, repro,
2017-03-11,-0.58, -1.74, -29.42, 1.60, 1.76, 7.63, repro,
2017-03-12,1.09, -4.45, -17.87, 1.61, 1.75, 7.64, repro,
2017-03-13,1.43, -1.09, -25.89, 1.58, 1.74, 7.48, repro,
2017-03-14,2.05, -2.72, -19.89, 1.61, 1.76, 7.56, repro,
2017-03-15,1.70, -2.84, -29.12, 1.61, 1.75, 7.60, repro,
2017-03-16,1.63, -1.93, -21.47, 1.62, 1.81, 7.72, repro,
2017-03-17,0.93, -1.47, -22.24, 1.58, 1.73, 7.49, repro,
2017-03-18,0.72, -1.33, -29.57, 1.59, 1.73, 7.49, repro,
2017-03-19,0.78, -2.19, -27.63, 1.60, 1.75, 7.53, repro,
2017-03-20,1.96, 0.45, -30.27, 1.59, 1.74, 7.53, repro,
2017-03-21,-0.01, 0.99, -19.93, 1.59, 1.74, 7.56, repro,
2017-03-22,0.63, 2.55, -14.59, 1.57, 1.73, 7.45, repro,
2017-03-23,1.56, 1.82, -21.16, 1.60, 1.77, 7.59, repro,
2017-03-24,1.65, 1.33, -20.59, 1.62, 1.79, 7.70, repro,
2017-03-25,1.30, 1.83, -19.88, 1.59, 1.75, 7.58, repro,
2017-03-26,2.39, -1.04, -26.20, 1.62, 1.77, 7.68, repro,
2017-03-27,0.57, 1.68, -22.60, 1.60, 1.79, 7.65, repro,
2017-03-28,1.07, 1.00, -17.30, 1.61, 1.75, 7.61, repro,
2017-03-29,-1.51, 2.70, -18.03, 1.62, 1.86, 7.84, repro,
2017-03-30,2.60, -0.10, -15.53, 1.64, 1.80, 7.76, repro,
2017-03-31,-1.57, -2.01, -22.39, 1.58, 1.73, 7.42, repro,
2017-04-01,0.85, 2.21, -14.15, 1.58, 1.78, 7.46, repro,
2017-04-02,0.09, 0.29, -4.89, 1.55, 1.70, 7.31, repro,
2017-04-03,-1.26, -1.96, -23.27, 1.55, 1.69, 7.28, repro,
2017-04-04,-2.53, -1.43, -23.59, 1.56, 1.71, 7.33, repro,
2017-04-05,-1.32, -1.02, -19.77, 1.57, 1.71, 7.33, repro,
2017-04-06,-0.81, -1.03, -23.06, 1.62, 1.79, 7.55, repro,
2017-04-07,-1.16, -2.15, -28.19, 1.59, 1.78, 7.57, repro,
2017-04-08,-2.13, -2.28, -24.30, 1.62, 1.90, 7.89, repro,
2017-04-09,-2.53, -1.58, -18.17, 1.56, 1.72, 7.37, repro,
2017-04-10,-1.77, -1.16, -26.11, 1.57, 1.72, 7.36, repro,
2017-04-11,-1.70, -0.11, -20.00, 1.58, 1.73, 7.44, repro,
2017-04-12,-2.15, -1.82, -23.17, 1.60, 1.87, 7.67, repro,
2017-04-13,-2.11, -1.51, -21.36, 1.56, 1.71, 7.32, repro,
2017-04-14,-3.04, 0.05, -25.48, 1.57, 1.78, 7.53, repro,
2017-04-15,-0.65, -0.79, -24.66, 1.65, 1.79, 7.75, repro,
2017-04-16,0.06, -3.19, -25.24, 1.60, 1.79, 7.53, repro,
2017-04-17,-3.59, -1.63, -25.06, 1.57, 1.73, 7.40, repro,
2017-04-18,-3.76, -2.91, -25.80, 1.60, 1.85, 7.68, repro,
2017-04-19,-2.54, -2.60, -18.94, 1.58, 1.76, 7.50, repro,
2017-04-20,-1.90, -1.98, -20.00, 1.60, 1.78, 7.59, repro,
2017-04-21,-0.99, 0.87, -15.41, 1.56, 1.71, 7.31, repro,
2017-04-22,-2.23, -1.05, -20.18, 1.61, 1.74, 7.49, repro,
2017-04-23,-2.25, -1.82, -25.08, 1.57, 1.73, 7.39, repro,
2017-04-24,-4.24, -2.95, -23.33, 1.57, 1.73, 7.35, repro,
2017-04-25,-2.20, -2.91, -21.48, 1.59, 1.75, 7.42, repro,
2017-04-26,-3.82, -0.44, -10.51, 1.56, 1.70, 7.27, repro,
2017-04-27,-1.39, -0.99, -19.19, 1.57, 1.77, 7.44, repro,
2017-04-28,-2.41, 0.40, -7.17, 1.58, 1.78, 7.51, repro,
2017-04-29,2.31, 3.47, -3.45, 1.58, 1.77, 7.49, repro,
2017-04-30,-0.53, -1.95, -8.11, 1.63, 1.79, 7.53, repro,
2017-05-01,-2.19, -1.31, -18.83, 1.56, 1.70, 7.29, repro,
2017-05-02,-1.87, -1.48, -19.83, 1.56, 1.70, 7.29, repro,
2017-05-03,-1.89, -1.07, -20.15, 1.57, 1.73, 7.37, repro,
2017-05-04,-1.84, -1.81, -18.92, 1.64, 1.90, 7.83, repro,
2017-05-05,-3.73, -1.26, -19.05, 1.58, 1.74, 7.39, repro,
2017-05-06,-3.07, -0.77, -18.19, 1.56, 1.71, 7.29, repro,
2017-05-07,-2.47, 0.85, -17.31, 1.55, 1.70, 7.25, repro,
2017-05-08,-1.61, -0.29, -14.41, 1.59, 1.85, 7.63, repro,
2017-05-09,-0.52, -2.61, -20.38, 1.57, 1.72, 7.36, repro,
2017-05-10,-2.78, -2.53, -23.97, 1.60, 1.86, 7.67, repro,
2017-05-11,-4.33, -2.85, -18.44, 1.66, 1.86, 7.63, repro,
2017-05-12,-2.45, -0.32, -24.83, 1.55, 1.71, 7.29, repro,
2017-05-13,-2.16, -2.84, -17.67, 1.57, 1.72, 7.42, repro,
2017-05-14,-2.57, -0.90, -18.03, 1.56, 1.72, 7.35, repro,
2017-05-15,-0.53, -2.43, -19.79, 1.56, 1.73, 7.38, repro,
2017-05-16,-2.19, -1.28, -18.05, 1.56, 1.72, 7.32, repro,
2017-05-17,-1.81, -1.22, -24.05, 1.57, 1.72, 7.42, repro,
2017-05-18,-2.49, 1.66, -9.10, 1.65, 1.87, 7.75, repro,
2017-05-19,-2.51, -1.29, -13.63, 1.59, 1.73, 7.45, repro,
2017-05-20,-0.73, -0.24, -0.08, 1.60, 1.76, 7.61, repro,
2017-05-21,-3.38, -2.55, -18.17, 1.65, 1.82, 7.62, repro,
2017-05-22,-3.22, -0.50, -20.47, 1.63, 1.84, 7.84, repro,
2017-05-23,-0.17, -0.09, -20.47, 1.61, 1.80, 7.79, repro,
2017-05-24,1.64, 1.30, -6.51, 1.65, 1.84, 7.87, repro,
2017-05-25,-0.44, -1.01, -9.37, 1.58, 1.79, 7.51, repro,
2017-05-26,-2.43, -1.12, -19.29, 1.56, 1.78, 7.42, repro,
2017-05-27,-2.27, -2.33, -21.77, 1.64, 1.86, 7.65, repro,
2017-05-28,-0.71, 2.16, -12.18, 1.70, 1.84, 7.89, repro,
2017-05-29,-2.28, 0.13, -9.35, 1.62, 1.75, 7.77, repro,